[ hide orbit diagram ]
For accurate long-term ephemerides, please instead use our Horizons system.This orbit viewer was implemented using two-body methods, and hence should not be used for determining accurate long-term trajectories (over several years or decades) or planetary encounter circumstances.
Orbital Elements at Epoch 2459000.5 (2020-May-31.0) TDB
Reference: JPL 16 (heliocentric ecliptic J2000)
Element | Value | Uncertainty (1-sigma) | Units |
e | .2492402905618949 | 7.6575e-08 | |
a | 2.394573051085521 | 1.4877e-08 | au |
q | 1.797748968061283 | 1.8447e-07 | au |
i | 8.366793326136793 | 7.3783e-06 | deg |
node | 350.6427843251118 | 2.9506e-05 | deg |
peri | 323.4838537145156 | 3.2206e-05 | deg |
M | 220.9074783724792 | 1.5689e-05 | deg |
tp | 2459523.427934911134 (2021-Nov-04.92793491) | 6.1428e-05 | TDB |
period | 1353.444846388927 3.71 | 1.2613e-05 3.453e-08 | d yr |
n | .2659879351275392 | 2.4787e-09 | deg/d |
Q | 2.99139713410976 | 1.8585e-08 | au |
|
| | Orbit Determination Parameters
Additional Information
|
[ show covariance matrix ]
Physical Parameter Table
Parameter |
Symbol |
Value |
Units |
Sigma |
Reference |
Notes |
absolute magnitude |
H |
16.7 |
|
n/a |
MPO413355 |
|
|
357368 (2003 SC167) Discovered 2003-Sep-22 by LINEAR at Socorro |
Reference: 20130327/Numbers.arc | Last Updated: 2013-03-29 |
|
[ show close-approach data ]
|